| time (UTC) | temp C | wind direction | speed KPH | gust KPH | rain 1hr cm | rain 24hr cm | rain mn cm | humidity % | barometer mb |
| 20260504150912 | 18 | 123 | 0.0 | 4.8 | 0.00 | 0.00 | 0.00 | 58 | 1010.4 |
| 20260504150408 | 18 | 117 | 1.6 | 3.2 | 0.00 | 0.00 | 0.00 | 59 | 1010.4 |
| 20260504140835 | 15 | 117 | 0.0 | 3.2 | 0.00 | 0.00 | 0.00 | 65 | 1010.3 |
| 20260504140330 | 15 | 106 | 3.2 | 9.7 | 0.00 | 0.00 | 0.00 | 65 | 1010.4 |
| 20260504130759 | 13 | 119 | 0.0 | 9.7 | 0.00 | 0.00 | 0.00 | 69 | 1011.1 |
| 20260504130255 | 13 | 143 | 1.6 | 4.8 | 0.00 | 0.00 | 0.00 | 67 | 1011.2 |
| 20260504120219 | 13 | 97 | 0.0 | 6.4 | 0.00 | 0.00 | 0.00 | 66 | 1011.2 |
| 20260504110647 | 12 | 111 | 1.6 | 4.8 | 0.00 | 0.00 | 0.00 | 64 | 1010.9 |
| 20260504110143 | 12 | 148 | 1.6 | 3.2 | 0.00 | 0.00 | 0.00 | 63 | 1010.8 |
| 20260504100609 | 10 | 143 | 0.0 | 1.6 | 0.00 | 0.00 | 0.00 | 67 | 1011.2 |
| 20260504100107 | 10 | 145 | 1.6 | 1.6 | 0.00 | 0.00 | 0.00 | 68 | 1011.1 |
| 20260504082003 | 11 | 157 | 1.6 | 9.7 | 0.00 | 0.00 | 0.00 | 62 | 1011.7 |
| 20260504081500 | 11 | 7 | 4.8 | 9.7 | 0.00 | 0.00 | 0.00 | 62 | 1011.8 |
| 20260504080954 | 11 | 154 | 3.2 | 6.4 | 0.00 | 0.00 | 0.00 | 60 | 1011.8 |
| 20260504080452 | 11 | 159 | 1.6 | 4.8 | 0.00 | 0.00 | 0.00 | 60 | 1011.6 |
| 20260504050305 | 12 | 152 | 1.6 | 3.2 | 0.00 | 0.00 | 0.00 | 54 | 1013.5 |
| 20260504045802 | 12 | 138 | 0.0 | 4.8 | 0.00 | 0.00 | 0.00 | 54 | 1013.4 |
| 20260504045304 | 12 | 214 | 1.6 | 3.2 | 0.00 | 0.00 | 0.00 | 53 | 1013.3 |
| 20260504044800 | 12 | 221 | 3.2 | 4.8 | 0.00 | 0.00 | 0.00 | 53 | 1013.4 |
| 20260504044257 | 12 | 101 | 1.6 | 4.8 | 0.00 | 0.00 | 0.00 | 54 | 1013.4 |
| 20260504043754 | 12 | 151 | 3.2 | 3.2 | 0.00 | 0.00 | 0.00 | 53 | 1013.3 |
| 20260504043251 | 12 | 126 | 1.6 | 4.8 | 0.00 | 0.00 | 0.00 | 53 | 1013.5 |
| 20260504042749 | 12 | 263 | 6.4 | 9.7 | 0.00 | 0.00 | 0.00 | 53 | 1013.5 |
| 20260504042245 | 12 | 226 | 3.2 | 4.8 | 0.00 | 0.00 | 0.00 | 53 | 1013.7 |
| 20260504041742 | 12 | 185 | 3.2 | 9.7 | 0.00 | 0.00 | 0.00 | 53 | 1013.7 |
| 20260504041238 | 12 | 275 | 8.0 | 9.7 | 0.00 | 0.00 | 0.00 | 52 | 1013.7 |
| 20260504040734 | 12 | 173 | 0.0 | 3.2 | 0.00 | 0.00 | 0.00 | 53 | 1013.9 |
| 20260504040232 | 12 | 192 | 1.6 | 6.4 | 0.00 | 0.00 | 0.00 | 53 | 1013.9 |
| 20260504035727 | 12 | 134 | 1.6 | 3.2 | 0.00 | 0.00 | 0.00 | 54 | 1013.8 |
| 20260504035225 | 12 | 139 | 1.6 | 3.2 | 0.00 | 0.00 | 0.00 | 54 | 1014.2 |
| 20260504034722 | 12 | 152 | 1.6 | 3.2 | 0.00 | 0.00 | 0.00 | 54 | 1014.0 |
| 20260504034219 | 12 | 129 | 1.6 | 3.2 | 0.00 | 0.00 | 0.00 | 55 | 1014.3 |
| 20260504033717 | 12 | 69 | 3.2 | 4.8 | 0.00 | 0.00 | 0.00 | 55 | 1014.2 |
| 20260504033214 | 12 | 124 | 1.6 | 1.6 | 0.00 | 0.00 | 0.00 | 56 | 1014.2 |
| 20260504032711 | 12 | 146 | 1.6 | 4.8 | 0.00 | 0.00 | 0.00 | 56 | 1014.3 |
| 20260504032208 | 12 | 129 | 1.6 | 3.2 | 0.00 | 0.00 | 0.00 | 56 | 1014.2 |
| 20260504031705 | 12 | 114 | 1.6 | 3.2 | 0.00 | 0.00 | 0.00 | 56 | 1014.1 |
| 20260504031202 | 12 | 148 | 1.6 | 3.2 | 0.00 | 0.00 | 0.00 | 57 | 1014.1 |
| 20260504030658 | 12 | 290 | 3.2 | 6.4 | 0.00 | 0.00 | 0.00 | 56 | 1014.3 |
| 20260504030155 | 12 | 189 | 3.2 | 4.8 | 0.00 | 0.00 | 0.00 | 56 | 1014.1 |
| 20260504025651 | 12 | 189 | 1.6 | 9.7 | 0.00 | 0.00 | 0.00 | 56 | 1014.3 |
| 20260504025148 | 12 | 157 | 1.6 | 4.8 | 0.00 | 0.00 | 0.00 | 56 | 1014.3 |
| 20260504024646 | 12 | 299 | 3.2 | 4.8 | 0.00 | 0.00 | 0.00 | 55 | 1014.3 |
| 20260504024142 | 12 | 135 | 1.6 | 4.8 | 0.00 | 0.00 | 0.00 | 54 | 1014.3 |
| 20260504023639 | 12 | 150 | 1.6 | 3.2 | 0.00 | 0.00 | 0.00 | 54 | 1014.4 |
| 20260504023135 | 12 | 114 | 1.6 | 4.8 | 0.00 | 0.00 | 0.00 | 55 | 1014.4 |
| 20260504022631 | 12 | 188 | 3.2 | 3.2 | 0.00 | 0.00 | 0.00 | 54 | 1014.4 |
| 20260504022127 | 12 | 132 | 0.0 | 1.6 | 0.00 | 0.00 | 0.00 | 55 | 1014.4 |
| 20260504021626 | 12 | 146 | 1.6 | 4.8 | 0.00 | 0.00 | 0.00 | 54 | 1013.9 |
| 20260504021121 | 12 | 150 | 0.0 | 3.2 | 0.00 | 0.00 | 0.00 | 55 | 1014.1 |
| 20260504020619 | 12 | 116 | 0.0 | 4.8 | 0.00 | 0.00 | 0.00 | 54 | 1014.2 |
| 20260504020115 | 12 | 272 | 6.4 | 11.3 | 0.00 | 0.00 | 0.00 | 53 | 1014.2 |
| 20260504015612 | 12 | 130 | 0.0 | 4.8 | 0.00 | 0.00 | 0.00 | 54 | 1014.3 |
| 20260504015108 | 12 | 173 | 3.2 | 4.8 | 0.00 | 0.00 | 0.00 | 54 | 1014.2 |
| 20260504014604 | 12 | 154 | 1.6 | 4.8 | 0.00 | 0.00 | 0.00 | 55 | 1013.9 |
| 20260504014101 | 12 | 250 | 3.2 | 4.8 | 0.00 | 0.00 | 0.00 | 54 | 1014.3 |
| 20260504013558 | 12 | 129 | 0.0 | 4.8 | 0.00 | 0.00 | 0.00 | 55 | 1014.0 |
| 20260504013055 | 12 | 158 | 1.6 | 3.2 | 0.00 | 0.00 | 0.00 | 55 | 1013.9 |
| 20260504012553 | 12 | 168 | 1.6 | 1.6 | 0.00 | 0.00 | 0.00 | 56 | 1013.8 |
| 20260504012051 | 12 | 135 | 0.0 | 1.6 | 0.00 | 0.00 | 0.00 | 59 | 1014.0 |
| 20260504011547 | 13 | 309 | 4.8 | 4.8 | 0.00 | 0.00 | 0.00 | 56 | 1013.9 |
| 20260504011043 | 13 | 137 | 1.6 | 3.2 | 0.00 | 0.00 | 0.00 | 51 | 1013.9 |
| 20260504010539 | 13 | 140 | 1.6 | 4.8 | 0.00 | 0.00 | 0.00 | 49 | 1014.2 |
| 20260504010035 | 14 | 123 | 1.6 | 3.2 | 0.00 | 0.00 | 0.00 | 49 | 1014.2 |
| 20260504005532 | 14 | 145 | 1.6 | 3.2 | 0.00 | 0.00 | 0.00 | 45 | 1014.4 |
| 20260504005030 | 14 | 112 | 0.0 | 3.2 | 0.00 | 0.00 | 0.00 | 44 | 1014.3 |
| 20260504004527 | 14 | 140 | 1.6 | 3.2 | 0.00 | 0.00 | 0.00 | 44 | 1014.3 |
| 20260504004024 | 14 | 110 | 0.0 | 1.6 | 0.00 | 0.00 | 0.00 | 44 | 1014.2 |
| 20260504003520 | 14 | 287 | 4.8 | 6.4 | 0.00 | 0.00 | 0.00 | 42 | 1014.1 |
| 20260504003017 | 15 | 127 | 1.6 | 4.8 | 0.00 | 0.00 | 0.00 | 42 | 1014.0 |
| 20260504002514 | 15 | 99 | 3.2 | 4.8 | 0.00 | 0.00 | 0.00 | 41 | 1014.1 |
| 20260504002012 | 15 | 155 | 3.2 | 3.2 | 0.00 | 0.00 | 0.00 | 41 | 1013.9 |
| 20260504001509 | 15 | 125 | 1.6 | 4.8 | 0.00 | 0.00 | 0.00 | 41 | 1013.9 |
| 20260504001005 | 15 | 134 | 0.0 | 4.8 | 0.00 | 0.00 | 0.00 | 41 | 1013.7 |
| 20260504000503 | 15 | 178 | 1.6 | 3.2 | 0.00 | 0.00 | 0.00 | 40 | 1013.7 |
| 20260503235959 | 15 | 155 | 3.2 | 4.8 | 0.00 | 0.00 | 0.00 | 40 | 1013.5 |
| 20260503235458 | 15 | 103 | 1.6 | 4.8 | 0.00 | 0.00 | 0.00 | 40 | 1013.9 |
| 20260503234954 | 15 | 124 | 1.6 | 4.8 | 0.00 | 0.00 | 0.00 | 40 | 1013.8 |
| 20260503234452 | 15 | 125 | 0.0 | 4.8 | 0.00 | 0.00 | 0.00 | 40 | 1013.9 |
| 20260503233950 | 15 | 105 | 3.2 | 3.2 | 0.00 | 0.00 | 0.00 | 38 | 1013.7 |
| 20260503233446 | 15 | 290 | 1.6 | 6.4 | 0.00 | 0.00 | 0.00 | 39 | 1013.9 |
| 20260503232942 | 15 | 185 | 3.2 | 3.2 | 0.00 | 0.00 | 0.00 | 38 | 1014.0 |
| 20260503232439 | 15 | 223 | 3.2 | 6.4 | 0.00 | 0.00 | 0.00 | 39 | 1014.2 |
| 20260503231937 | 15 | 239 | 1.6 | 3.2 | 0.00 | 0.00 | 0.00 | 39 | 1014.2 |
| 20260503231435 | 15 | 268 | 4.8 | 9.7 | 0.00 | 0.00 | 0.00 | 38 | 1014.4 |
| 20260503230931 | 15 | 121 | 0.0 | 0.0 | 0.00 | 0.00 | 0.00 | 41 | 1014.4 |
| 20260503230427 | 15 | 128 | 3.2 | 9.7 | 0.00 | 0.00 | 0.00 | 38 | 1014.4 |
| 20260503225925 | 15 | 179 | 1.6 | 3.2 | 0.00 | 0.00 | 0.00 | 37 | 1014.7 |
| 20260503225422 | 15 | 272 | 3.2 | 12.9 | 0.00 | 0.00 | 0.00 | 37 | 1014.6 |
| 20260503224917 | 15 | 135 | 1.6 | 6.4 | 0.00 | 0.00 | 0.00 | 37 | 1014.9 |
| 20260503224415 | 15 | 169 | 3.2 | 4.8 | 0.00 | 0.00 | 0.00 | 37 | 1015.0 |
| 20260503223912 | 16 | 168 | 1.6 | 4.8 | 0.00 | 0.00 | 0.00 | 38 | 1014.9 |
| 20260503223410 | 16 | 117 | 1.6 | 6.4 | 0.00 | 0.00 | 0.00 | 38 | 1014.9 |
| 20260503222910 | 16 | 267 | 4.8 | 12.9 | 0.00 | 0.00 | 0.00 | 37 | 1014.9 |
| 20260503222409 | 17 | 288 | 3.2 | 14.5 | 0.00 | 0.00 | 0.00 | 35 | 1015.1 |
| 20260503221907 | 17 | 152 | 1.6 | 4.8 | 0.00 | 0.00 | 0.00 | 39 | 1015.0 |
| 20260503221405 | 17 | 207 | 4.8 | 9.7 | 0.00 | 0.00 | 0.00 | 35 | 1015.5 |
| 20260503220901 | 17 | 107 | 0.0 | 3.2 | 0.00 | 0.00 | 0.00 | 43 | 1015.3 |
| 20260503220358 | 17 | 111 | 3.2 | 6.4 | 0.00 | 0.00 | 0.00 | 35 | 1015.3 |
| 20260503215855 | 16 | 119 | 0.0 | 6.4 | 0.00 | 0.00 | 0.00 | 38 | 1015.5 |
| 20260503215352 | 16 | 357 | 6.4 | 11.3 | 0.00 | 0.00 | 0.00 | 37 | 1015.8 |
| 20260503214849 | 16 | 115 | 0.0 | 6.4 | 0.00 | 0.00 | 0.00 | 38 | 1015.5 |
| 20260503214347 | 16 | 98 | 3.2 | 12.9 | 0.00 | 0.00 | 0.00 | 34 | 1015.5 |
| 20260503213844 | 17 | 117 | 1.6 | 4.8 | 0.00 | 0.00 | 0.00 | 34 | 1015.4 |
| 20260503213342 | 18 | 278 | 6.4 | 6.4 | 0.00 | 0.00 | 0.00 | 34 | 1015.5 |
| 20260503212838 | 18 | 129 | 3.2 | 6.4 | 0.00 | 0.00 | 0.00 | 33 | 1015.7 |
| 20260503212336 | 18 | 134 | 0.0 | 6.4 | 0.00 | 0.00 | 0.00 | 34 | 1015.7 |
| 20260503211833 | 17 | 104 | 3.2 | 3.2 | 0.00 | 0.00 | 0.00 | 34 | 1015.9 |
| 20260503211330 | 17 | 168 | 3.2 | 11.3 | 0.00 | 0.00 | 0.00 | 34 | 1016.0 |
| 20260503210825 | 16 | 231 | 1.6 | 4.8 | 0.00 | 0.00 | 0.00 | 35 | 1016.0 |
| 20260503210323 | 16 | 176 | 1.6 | 3.2 | 0.00 | 0.00 | 0.00 | 36 | 1016.0 |
| 20260503205817 | 16 | 103 | 1.6 | 4.8 | 0.00 | 0.00 | 0.00 | 36 | 1016.2 |
| 20260503205314 | 16 | 108 | 1.6 | 6.4 | 0.00 | 0.00 | 0.00 | 36 | 1016.2 |
| 20260503204811 | 16 | 95 | 1.6 | 9.7 | 0.00 | 0.00 | 0.00 | 36 | 1016.0 |
| 20260503204309 | 16 | 326 | 1.6 | 9.7 | 0.00 | 0.00 | 0.00 | 38 | 1016.1 |
| 20260503203806 | 16 | 296 | 6.4 | 12.9 | 0.00 | 0.00 | 0.00 | 35 | 1015.8 |
| 20260503203303 | 17 | 115 | 3.2 | 11.3 | 0.00 | 0.00 | 0.00 | 34 | 1016.0 |
| 20260503202800 | 17 | 112 | 0.0 | 6.4 | 0.00 | 0.00 | 0.00 | 35 | 1016.0 |
| 20260503202258 | 17 | 107 | 0.0 | 11.3 | 0.00 | 0.00 | 0.00 | 36 | 1016.1 |
| 20260503201755 | 17 | 156 | 1.6 | 11.3 | 0.00 | 0.00 | 0.00 | 33 | 1016.2 |
| 20260503201253 | 17 | 141 | 4.8 | 11.3 | 0.00 | 0.00 | 0.00 | 35 | 1016.4 |
| 20260503200750 | 17 | 121 | 1.6 | 6.4 | 0.00 | 0.00 | 0.00 | 35 | 1016.3 |
| 20260503200245 | 17 | 128 | 1.6 | 6.4 | 0.00 | 0.00 | 0.00 | 33 | 1016.4 |
| 20260503195743 | 16 | 277 | 3.2 | 12.9 | 0.00 | 0.00 | 0.00 | 36 | 1016.6 |
| 20260503195239 | 16 | 62 | 4.8 | 6.4 | 0.00 | 0.00 | 0.00 | 35 | 1016.5 |
| 20260503194737 | 16 | 106 | 1.6 | 4.8 | 0.00 | 0.00 | 0.00 | 34 | 1016.9 |
| 20260503194232 | 16 | 90 | 3.2 | 22.5 | 0.00 | 0.00 | 0.00 | 36 | 1016.8 |
| 20260503193729 | 17 | 81 | 6.4 | 11.3 | 0.00 | 0.00 | 0.00 | 35 | 1016.9 |
| 20260503193225 | 17 | 111 | 1.6 | 6.4 | 0.00 | 0.00 | 0.00 | 35 | 1017.1 |
| 20260503192721 | 17 | 97 | 3.2 | 3.2 | 0.00 | 0.00 | 0.00 | 32 | 1017.3 |
| 20260503192216 | 18 | 333 | 6.4 | 16.1 | 0.00 | 0.00 | 0.00 | 32 | 1017.3 |
| 20260503191713 | 17 | 342 | 4.8 | 9.7 | 0.00 | 0.00 | 0.00 | 35 | 1017.3 |
| 20260503191211 | 18 | 264 | 8.0 | 9.7 | 0.00 | 0.00 | 0.00 | 31 | 1017.5 |
| 20260503190707 | 18 | 221 | 0.0 | 4.8 | 0.00 | 0.00 | 0.00 | 38 | 1017.7 |
| 20260503190204 | 18 | 108 | 0.0 | 6.4 | 0.00 | 0.00 | 0.00 | 35 | 1017.5 |
| 20260503185701 | 17 | 103 | 3.2 | 11.3 | 0.00 | 0.00 | 0.00 | 35 | 1017.5 |
| 20260503185156 | 17 | 269 | 1.6 | 9.7 | 0.00 | 0.00 | 0.00 | 37 | 1017.7 |
| 20260503184651 | 16 | 131 | 1.6 | 4.8 | 0.00 | 0.00 | 0.00 | 36 | 1017.9 |
| 20260503184147 | 16 | 119 | 3.2 | 4.8 | 0.00 | 0.00 | 0.00 | 35 | 1018.0 |
| 20260503183643 | 16 | 110 | 3.2 | 3.2 | 0.00 | 0.00 | 0.00 | 35 | 1018.1 |
| 20260503183141 | 16 | 291 | 4.8 | 11.3 | 0.00 | 0.00 | 0.00 | 34 | 1018.2 |
| 20260503182640 | 16 | 112 | 1.6 | 3.2 | 0.00 | 0.00 | 0.00 | 36 | 1018.0 |
| 20260503182139 | 16 | 332 | 3.2 | 14.5 | 0.00 | 0.00 | 0.00 | 36 | 1018.2 |
| 20260503181635 | 17 | 213 | 3.2 | 3.2 | 0.00 | 0.00 | 0.00 | 35 | 1018.3 |
| 20260503181131 | 17 | 72 | 3.2 | 12.9 | 0.00 | 0.00 | 0.00 | 35 | 1018.5 |
| 20260503180628 | 17 | 110 | 4.8 | 12.9 | 0.00 | 0.00 | 0.00 | 33 | 1018.5 |
| 20260503180126 | 17 | 135 | 8.0 | 11.3 | 0.00 | 0.00 | 0.00 | 34 | 1018.5 |
| 20260503175623 | 17 | 90 | 1.6 | 4.8 | 0.00 | 0.00 | 0.00 | 36 | 1018.4 |
| 20260503175120 | 16 | 117 | 1.6 | 11.3 | 0.00 | 0.00 | 0.00 | 38 | 1018.5 |
| 20260503174616 | 17 | 292 | 8.0 | 17.7 | 0.00 | 0.00 | 0.00 | 36 | 1018.7 |
| 20260503174114 | 16 | 85 | 0.0 | 6.4 | 0.00 | 0.00 | 0.00 | 39 | 1018.8 |
| 20260503173609 | 17 | 115 | 1.6 | 4.8 | 0.00 | 0.00 | 0.00 | 37 | 1018.8 |
| 20260503173105 | 16 | 324 | 9.7 | 14.5 | 0.00 | 0.00 | 0.00 | 35 | 1018.7 |
| 20260503172602 | 16 | 150 | 1.6 | 4.8 | 0.00 | 0.00 | 0.00 | 42 | 1018.9 |
| 20260503172100 | 16 | 203 | 6.4 | 11.3 | 0.00 | 0.00 | 0.00 | 37 | 1019.3 |
| 20260503171556 | 16 | 118 | 3.2 | 16.1 | 0.00 | 0.00 | 0.00 | 38 | 1019.3 |
| 20260503171053 | 16 | 110 | 8.0 | 17.7 | 0.00 | 0.00 | 0.00 | 34 | 1019.3 |
| 20260503170549 | 15 | 136 | 1.6 | 3.2 | 0.00 | 0.00 | 0.00 | 38 | 1019.3 |